Temp
12 12 12 12 12 11 11 11 11 10 10 9 9 9 8 8 8 8 8 8 7 7 8 8 8 8 8 9 9 9 9 8 8 8 9 9 9 9 9 9 9 8 9 8 8 8 8 7 8 8 8 9 9 10 10 10 10 10 11 11 11 11 12 12 12 12 13 13 13 13 13 13 14 14 15 15 15 16 16 16 16 16 16 16 16
12 12 12 11 11 11 11 11 11 10 10 9 9 9 8 7 7 7 7 7 7 7 7 7 8 8 8 8 8 8 8 8 8 8 8 8 8 8 8 8 8 8 8 8 7 7 7 7 7 8 8 8 9 9 10 10 10 10 10 10 10 11 11 12 12 12 12 12 12 13 13 13 14 14 14 14 14 15 15 16 16 16 15 16 16
12 12 11 11 11 11 11 11 11 10 10 9 9 8 7 7 7 7 7 7 7 7 7 7 7 8 8 7 7 7 7 7 7 7 7 7 8 8 7 7 7 7 7 7 6 6 6 7 7 8 8 8 8 8 8 9 9 10 10 10 10 10 11 11 11 12 12 12 12 12 13 13 13 13 14 14 14 14 14 15 15 15 15 15 15
12 11 11 11 11 11 11 11 11 10 9 8 8 8 7 7 7 7 7 7 7 7 7 7 8 8 8 7 7 7 7 7 7 7 7 7 7 7 7 7 6 6 6 6 6 6 6 6 7 7 8 8 8 8 8 8 8 9 9 10 10 10 10 11 11 11 11 12 12 12 12 12 12 13 13 13 13 14 14 15 15 15 14 15 15
11 11 11 11 10 10 11 11 10 10 9 8 8 8 7 7 7 7 7 7 7 7 7 7 8 8 8 7 6 7 7 7 7 7 7 7 7 7 6 6 6 6 6 6 5 5 6 6 6 7 7 7 7 7 7 8 8 8 9 9 9 10 10 10 11 11 11 11 11 11 11 11 12 12 13 13 13 13 14 14 14 14 14 14 14
11 11 11 10 10 10 10 10 10 10 9 8 8 7 7 7 7 7 7 7 7 7 7 7 8 8 8 7 7 7 7 6 6 6 7 7 7 6 6 6 5 5 5 5 5 6 6 6 6 7 7 7 7 7 7 7 8 8 8 9 9 9 10 10 10 11 11 11 11 11 11 11 12 12 13 13 13 13 13 14 14 14 14 14 14
11 11 10 10 10 10 10 10 10 9 9 8 8 7 7 7 7 7 7 7 7 7 7 7 7 8 8 8 7 7 7 7 6 6 6 7 6 6 6 6 5 5 5 5 6 6 6 6 6 6 7 7 7 7 7 7 8 8 8 9 9 9 9 10 10 10 10 11 11 11 11 11 11 11 12 12 13 13 13 14 14 14 14 14 14
10 10 10 10 10 10 10 9 9 9 9 8 8 7 7 7 7 7 7 7 7 7 7 7 7 8 8 8 8 8 8 7 7 7 7 6 6 6 6 6 5 5 5 5 6 6 6 6 6 6 6 7 7 7 8 7 8 8 8 8 9 9 9 9 10 10 10 10 10 11 11 11 11 11 12 12 12 13 13 13 14 14 14 14 14
10 10 10 10 10 9 9 9 9 9 9 8 8 8 8 7 7 7 7 7 7 7 7 8 8 8 8 8 8 8 8 8 7 7 7 6 6 6 6 6 5 5 5 5 5 5 5 6 6 6 6 7 7 7 8 8 7 8 8 8 8 8 9 9 9 9 10 10 10 10 10 11 11 11 12 12 12 12 12 13 13 13 14 14 13
10 10 10 10 9 9 9 9 9 9 9 8 8 8 8 8 7 7 8 8 8 8 8 8 8 8 8 8 8 8 8 8 8 7 7 7 6 6 6 6 5 5 5 5 5 5 5 5 6 6 6 7 7 7 7 8 7 7 7 8 8 8 8 9 9 9 9 9 9 10 10 10 11 11 11 11 11 11 12 12 13 13 13 13 13
10 10 9 9 9 9 9 9 9 9 9 8 8 8 8 8 8 8 8 8 8 8 8 8 8 8 8 8 8 8 8 8 8 8 8 7 7 7 6 6 6 5 5 5 5 4 5 5 5 6 6 7 7 7 7 7 7 7 7 7 8 8 8 8 9 9 9 9 9 9 9 9 9 10 10 10 10 11 11 12 12 13 13 13 13
10 10 9 9 9 9 9 9 9 9 9 8 8 8 8 8 8 8 8 8 8 8 8 8 8 8 8 8 8 8 8 8 8 8 8 8 7 7 7 6 6 5 5 5 5 5 5 5 5 5 6 6 7 7 7 7 7 7 7 7 7 7 8 8 8 8 8 8 8 8 8 8 8 8 9 9 10 10 10 11 11 12 12 13 13
10 10 9 9 9 9 9 9 9 9 9 8 8 8 8 8 8 8 8 8 8 8 8 8 8 8 8 8 8 8 8 8 8 8 8 8 7 7 7 6 6 5 5 5 5 5 5 5 5 5 5 5 6 6 6 7 7 7 7 7 7 7 8 8 8 8 8 8 8 8 8 7 7 7 7 8 8 9 9 10 10 11 11 12 12
10 9 9 9 9 9 9 9 9 9 8 8 8 8 8 8 8 8 8 8 8 8 8 8 8 8 8 8 8 8 8 8 8 8 8 8 8 7 7 7 6 6 5 5 5 5 5 5 5 5 5 5 5 5 6 6 7 7 7 7 7 7 7 7 8 8 8 8 8 8 8 7 7 7 7 7 8 8 9 9 10 10 10 10 11
9 9 9 9 9 9 9 8 8 9 9 9 9 8 8 8 9 8 8 8 8 8 8 8 8 8 8 8 8 8 8 8 8 8 8 8 8 7 7 7 7 6 5 5 5 5 5 5 5 5 5 5 5 5 6 6 6 6 7 7 7 7 7 7 7 7 7 7 7 7 7 7 7 7 8 8 8 8 8 9 9 10 10 10 10
9 9 9 9 9 9 9 9 9 9 9 9 9 9 9 8 8 9 9 8 9 8 8 8 8 8 8 8 8 8 8 8 8 7 8 8 7 7 7 7 7 6 6 5 5 5 5 5 5 5 5 5 5 5 6 6 6 6 6 6 6 6 6 6 7 7 7 7 7 7 7 7 7 7 8 8 8 8 8 9 9 10 10 10 10
9 9 9 9 9 9 9 9 9 9 9 9 9 9 9 9 9 9 9 9 9 9 9 8 8 8 8 8 8 8 8 8 8 7 7 7 7 7 7 7 7 7 6 5 5 5 5 5 5 5 5 5 5 5 5 5 6 6 6 6 6 6 6 6 6 6 6 6 7 7 7 7 7 7 7 7 8 8 8 8 9 9 10 10 10
9 9 9 9 9 9 9 9 9 9 9 9 9 9 9 9 9 9 9 9 9 9 9 9 9 9 9 9 9 9 8 8 8 8 7 7 7 7 7 7 7 7 6 6 5 5 5 5 5 5 5 5 5 5 5 5 5 5 6 6 6 6 6 6 6 6 6 6 6 6 7 7 7 7 7 7 7 7 8 8 8 8 9 9 9
9 9 9 9 9 9 9 9 9 8 9 9 9 9 9 9 9 9 9 9 9 9 9 9 9 9 9 9 9 9 9 8 8 8 7 7 7 7 7 7 7 7 7 6 5 5 5 5 5 5 5 5 5 5 5 5 5 5 5 5 6 6 6 6 6 6 6 6 6 6 6 6 6 7 7 7 7 7 7 7 7 7 8 8 9
9 9 9 9 9 9 9 9 9 9 9 9 9 9 9 9 9 9 9 9 9 9 9 9 9 9 9 9 9 9 9 8 8 8 8 7 7 7 7 7 7 7 7 6 6 5 5 5 6 6 6 5 5 5 5 5 5 5 5 5 5 6 6 6 6 6 6 6 6 6 6 6 6 6 6 7 7 7 7 7 7 7 7 8 8
10 9 9 9 9 9 9 9 9 9 9 9 9 9 9 9 9 9 9 9 9 9 9 9 9 9 9 9 9 9 9 9 8 8 8 8 7 7 7 7 7 7 7 6 6 6 6 6 6 6 6 5 5 5 5 5 5 5 5 5 5 5 5 5 5 6 6 7 7 7 7 6 6 6 6 6 7 7 7 7 7 7 7 7 8
10 10 10 9 9 9 9 9 9 9 9 9 9 9 9 9 9 9 9 9 9 9 9 9 9 9 9 9 9 9 9 9 9 8 8 8 7 7 7 7 7 7 7 6 6 6 6 6 6 6 5 5 5 5 5 5 5 5 5 5 5 5 5 5 5 5 6 6 6 7 6 6 6 6 6 6 6 6 7 7 7 7 7 8 8
10 10 10 10 10 9 9 9 10 10 10 10 10 10 10 10 10 9 9 10 10 9 9 9 9 9 9 9 9 9 9 9 9 9 8 8 7 7 7 7 7 7 7 6 6 6 6 6 6 5 5 5 5 5 5 5 5 5 5 5 5 5 4 4 5 5 6 6 6 6 6 6 6 6 6 6 6 6 6 7 7 7 7 8 8
10 10 10 10 10 10 10 10 10 10 10 10 10 10 10 10 10 10 9 9 10 9 9 9 9 9 9 9 9 9 9 9 9 9 8 8 7 7 7 7 7 7 7 6 6 6 6 6 6 5 5 5 5 5 5 5 4 4 5 5 5 4 4 5 5 5 6 6 6 6 6 5 5 6 6 6 6 6 6 6 7 7 7 8 8
10 10 10 10 10 10 10 10 10 10 10 10 10 10 10 10 10 10 10 10 9 9 9 9 9 9 9 9 9 9 9 9 9 9 8 8 8 7 7 7 7 7 7 6 6 6 6 6 6 6 5 5 5 5 5 5 4 4 4 5 5 4 5 5 5 6 6 6 6 6 6 5 5 5 5 6 6 6 6 6 7 7 7 7 8
11 11 11 11 10 10 10 10 10 10 10 10 10 10 10 10 10 10 10 9 9 9 9 9 9 10 10 9 10 9 9 9 9 9 9 8 8 7 7 7 7 7 7 7 6 6 6 6 6 6 5 5 5 4 5 5 4 4 4 4 4 5 5 5 5 6 6 6 6 6 5 5 5 5 5 5 6 6 6 7 7 7 7 7 7
11 11 11 11 11 11 11 10 10 10 10 10 10 10 10 10 10 10 10 10 9 9 9 9 9 10 10 10 10 10 10 9 9 9 9 8 8 8 7 7 7 7 7 7 7 6 6 6 6 6 5 5 5 4 4 4 4 4 4 4 4 4 5 5 5 5 6 6 6 6 5 5 5 5 5 6 6 6 6 7 7 7 7 7 7
11 11 11 11 11 11 11 11 10 10 10 10 10 10 10 10 10 10 10 10 9 9 9 10 10 10 10 10 10 10 10 10 9 9 9 9 8 8 7 7 7 7 7 7 7 7 6 6 6 6 6 5 5 4 4 4 4 4 4 4 4 4 4 5 5 5 6 6 6 6 5 5 5 6 6 6 6 6 6 6 7 7 7 7 7
11 11 11 11 11 11 11 11 10 10 10 10 10 10 10 10 10 10 10 10 9 9 9 10 10 10 10 10 10 10 10 10 9 9 9 9 8 8 8 7 7 7 7 7 7 7 7 7 6 6 6 6 5 5 4 4 4 4 4 4 4 4 4 4 5 5 5 6 6 6 6 6 6 6 6 6 6 6 6 6 6 6 6 6 7
11 11 11 11 11 11 11 11 10 10 10 10 10 10 10 10 10 10 10 10 10 10 10 10 10 10 10 10 10 10 10 10 10 9 9 9 9 8 8 7 7 7 7 7 7 7 7 7 7 6 6 6 5 5 5 4 4 4 4 4 4 4 4 4 4 4 5 5 5 5 5 5 5 6 6 6 6 6 6 6 6 6 6 6 6
12 12 11 11 11 11 11 11 11 10 10 10 10 10 10 10 10 10 10 10 10 10 10 10 10 10 10 10 10 10 10 10 10 9 9 9 9 8 8 8 7 7 7 7 7 7 7 7 7 6 6 6 6 5 5 4 4 4 4 4 4 4 4 4 4 4 4 5 5 5 5 5 5 5 5 5 4 4 5 5 5 5 5 5 5
12 12 12 11 11 11 11 11 11 10 10 10 10 10 10 10 11 10 10 10 10 10 10 10 10 10 10 11 10 10 10 10 10 9 9 9 9 8 8 8 8 7 7 7 7 7 7 7 7 7 6 6 6 5 5 5 4 4 4 4 4 4 4 4 4 4 4 4 4 4 4 4 4 4 4 4 4 4 4 4 4 4 4 4 5
12 12 11 11 11 11 11 11 11 11 11 11 10 10 10 10 11 11 11 11 11 11 11 11 11 11 11 11 11 11 10 10 10 9 9 9 9 8 8 8 8 7 7 7 7 7 7 7 7 7 6 6 6 6 5 5 5 4 4 4 4 4 4 4 4 4 4 4 4 4 4 4 4 4 4 4 4 4 4 4 4 4 4 4 4
11 11 11 11 11 11 11 11 11 11 11 11 11 11 11 11 11 11 11 11 11 11 11 11 11 11 11 11 11 11 11 10 10 10 10 9 9 8 8 8 8 7 7 7 7 7 7 7 7 7 6 6 6 6 6 5 5 5 4 4 4 4 4 4 4 4 4 4 4 4 4 4 4 4 4 4 4 4 4 3 3 3 3 3 4
11 11 11 11 12 12 11 11 11 11 11 11 11 11 11 11 11 11 11 11 11 11 11 11 11 11 11 11 11 11 11 11 11 10 10 10 9 9 8 8 8 8 7 7 7 7 7 7 7 7 6 6 6 6 6 6 5 5 5 4 4 4 4 4 4 4 4 4 4 4 4 4 4 4 3 3 3 3 3 3 2 2 2 2 3
11 11 11 12 12 12 11 11 11 11 11 11 11 11 11 12 11 11 11 11 11 11 11 11 11 11 11 11 11 11 11 11 11 11 10 10 10 9 9 8 8 8 8 7 7 7 7 7 7 7 7 6 6 6 6 6 5 5 5 4 4 4 4 4 4 4 4 4 4 4 4 4 4 4 3 3 3 3 2 2 2 2 2 1 2
11 11 12 12 12 12 12 12 12 11 12 12 12 12 12 12 12 12 12 12 12 12 12 12 12 12 12 12 11 11 11 11 11 11 10 10 10 10 9 9 8 8 8 8 7 7 7 7 7 7 7 7 6 6 6 6 5 5 5 5 5 4 4 4 4 4 4 4 4 4 4 4 4 3 3 3 3 2 2 2 2 2 1 1 2
12 12 12 12 12 12 12 12 12 12 12 12 12 12 12 12 12 12 12 12 12 12 12 12 12 12 12 12 12 11 11 11 11 11 10 10 10 10 9 9 9 8 8 8 8 8 7 7 7 7 7 7 7 6 6 6 6 5 5 5 5 4 4 4 4 4 4 4 4 4 4 4 4 4 3 3 3 2 2 2 2 2 1 1 1
12 12 12 12 12 12 12 12 12 12 12 12 12 12 12 12 12 12 12 12 12 12 12 12 12 12 12 12 12 12 11 11 11 11 10 10 10 10 10 9 9 9 8 8 8 8 8 8 7 7 7 7 7 7 6 6 6 6 5 5 5 4 4 4 4 4 4 3 4 4 4 4 4 4 3 3 3 2 2 2 2 1 1 1 1
12 12 12 12 12 12 12 12 12 12 12 12 12 12 12 12 12 12 12 12 12 12 12 12 12 12 12 12 12 12 11 11 11 11 11 10 10 10 10 10 9 9 9 8 8 8 8 8 8 7 7 7 7 7 6 6 6 5 5 5 5 4 4 4 4 3 3 3 3 4 4 4 4 4 3 3 3 2 2 2 2 1 1 1 1
12 12 12 12 12 12 12 12 12 12 12 12 12 12 12 12 12 12 12 12 12 12 12 12 12 12 12 12 12 12 12 12 11 11 11 11 10 10 10 10 9 9 9 9 8 8 8 8 8 7 7 7 7 7 7 6 6 6 5 5 5 4 4 4 4 3 3 3 3 3 4 4 4 4 3 3 3 3 2 2 2 1 1 1 2
12 12 12 12 12 12 12 12 12 12 12 12 12 13 13 13 12 12 12 12 12 12 12 12 12 12 12 12 12 12 12 12 12 11 11 11 11 10 10 10 10 9 9 9 9 8 8 8 8 8 7 7 7 7 7 6 6 6 5 5 5 4 4 4 3 3 3 3 3 3 3 3 4 4 3 3 3 3 3 2 2 1 1 1 2
12 12 12 12 12 12 12 12 12 12 12 12 13 13 13 13 13 13 12 12 12 12 12 12 12 12 12 12 12 12 12 12 12 11 11 11 11 11 10 10 10 9 9 9 9 9 8 8 8 8 8 7 7 7 7 6 6 5 5 5 5 4 4 4 3 3 3 3 3 3 3 3 3 4 4 3 3 3 3 2 2 1 1 1 1
12 12 12 12 12 12 12 12 12 12 12 12 13 13 13 13 13 13 12 12 12 12 12 12 12 12 12 12 12 12 12 12 12 11 11 11 11 11 10 10 10 10 9 9 9 9 9 8 8 8 8 7 7 7 7 6 6 5 5 5 5 4 4 4 3 3 3 3 3 3 3 3 3 3 3 3 3 3 3 2 2 1 1 1 1
12 12 12 12 12 12 12 12 12 12 12 13 13 13 13 13 13 13 13 12 12 12 12 12 12 12 12 12 11 11 11 11 11 11 11 11 11 11 10 10 10 10 10 9 9 9 9 9 8 8 8 8 7 7 7 6 6 5 5 5 5 4 4 4 3 3 3 3 3 3 3 3 3 3 3 3 3 3 3 2 2 2 1 1 1
12 12 12 12 12 12 12 12 12 12 12 13 13 13 13 13 13 13 13 12 12 12 12 12 12 12 12 11 11 11 11 11 11 11 11 11 11 10 10 10 10 10 10 9 9 9 9 9 9 8 8 8 7 7 7 7 6 6 5 5 5 4 4 3 3 3 3 3 2 2 2 2 2 2 3 3 3 3 3 2 2 1 1 1 1
13 13 13 12 12 12 12 12 12 12 12 13 13 13 13 13 13 13 12 12 12 12 12 12 12 12 12 11 11 11 11 11 11 11 11 11 11 10 10 10 10 10 10 9 9 9 9 9 9 8 8 8 7 7 7 7 6 6 5 5 5 5 4 4 4 3 3 3 3 2 2 2 2 2 2 3 3 3 2 2 2 1 1 1 1
13 13 12 12 12 12 12 12 12 12 12 13 13 13 13 13 13 13 12 12 12 12 12 12 12 12 12 11 11 11 11 11 11 11 11 11 11 10 10 10 10 10 10 9 9 9 9 9 9 8 8 8 7 7 7 7 6 6 6 5 5 5 4 4 4 4 3 3 3 3 2 2 2 2 2 3 3 2 2 2 2 1 1 1 1
13 13 13 13 13 13 13 13 13 13 13 13 13 13 13 13 13 13 13 12 12 12 12 12 12 12 12 12 11 11 11 11 11 11 11 11 11 10 10 10 10 10 10 9 9 9 9 9 9 8 8 8 8 7 7 7 6 6 6 5 5 5 5 5 4 4 4 3 3 3 3 3 2 2 2 3 3 3 2 2 2 1 1 1 1
13 13 13 13 13 13 13 13 13 13 13 13 13 14 13 13 13 13 13 13 12 12 12 12 12 12 12 12 12 11 11 11 11 11 11 11 10 10 10 10 10 10 10 9 9 9 9 9 9 8 8 8 8 7 7 7 6 6 6 6 5 5 5 5 4 4 4 3 3 3 3 3 3 3 3 3 3 3 2 2 2 2 1 1 1
13 13 13 13 13 13 13 13 13 13 13 13 13 14 13 13 13 13 13 13 13 13 13 13 12 12 12 12 12 12 11 11 11 11 11 11 10 10 10 10 10 10 10 9 9 9 9 9 9 8 8 8 8 7 7 7 6 6 6 6 5 5 5 5 5 4 4 4 3 3 3 3 3 3 3 3 3 3 2 2 2 2 1 1 1
Height
1558 1558 1557 1556 1555 1553 1552 1551 1549 1548 1547 1546 1545 1544 1544 1544 1543 1543 1542 1542 1541 1540 1539 1538 1537 1535 1533 1531 1530 1528 1528 1528 1529 1529 1529 1529 1528 1528 1527 1526 1525 1524 1523 1522 1520 1519 1518 1517 1516 1515 1514 1513 1512 1511 1511 1511 1511 1510 1510 1510 1510 1510 1510 1510 1510 1510 1509 1509 1508 1508 1508 1507 1507 1506 1506 1505 1504 1503 1501 1500 1499 1499 1499 1499 1499
1558 1558 1557 1556 1555 1553 1552 1551 1549 1549 1547 1546 1546 1545 1544 1544 1544 1544 1543 1543 1542 1541 1540 1539 1537 1535 1533 1532 1530 1530 1530 1530 1530 1530 1530 1529 1529 1528 1527 1526 1525 1524 1523 1521 1520 1519 1517 1516 1515 1514 1513 1512 1511 1511 1510 1510 1509 1509 1510 1510 1510 1510 1510 1510 1510 1510 1509 1509 1509 1508 1508 1508 1507 1507 1506 1505 1504 1503 1503 1502 1501 1500 1499 1499 1499
1558 1558 1556 1555 1554 1553 1552 1551 1550 1549 1548 1547 1546 1546 1545 1545 1545 1545 1544 1543 1543 1542 1540 1539 1538 1536 1534 1533 1532 1531 1531 1531 1531 1531 1530 1530 1529 1528 1527 1526 1525 1524 1522 1521 1520 1518 1517 1516 1514 1513 1513 1512 1511 1510 1509 1509 1508 1508 1509 1509 1509 1510 1510 1510 1510 1510 1509 1509 1508 1508 1508 1508 1507 1506 1506 1505 1505 1504 1503 1503 1502 1501 1500 1500 1500
1558 1557 1556 1555 1555 1554 1553 1552 1551 1550 1549 1548 1547 1547 1546 1546 1546 1545 1545 1544 1544 1543 1541 1540 1538 1537 1535 1534 1534 1533 1533 1533 1532 1532 1531 1531 1530 1529 1528 1526 1525 1524 1522 1521 1519 1518 1516 1515 1514 1513 1512 1512 1511 1511 1510 1509 1508 1508 1508 1508 1509 1509 1509 1509 1510 1510 1509 1509 1508 1508 1508 1508 1507 1507 1506 1506 1505 1505 1504 1503 1503 1502 1501 1501 1500
1558 1557 1556 1556 1555 1555 1554 1553 1552 1551 1550 1549 1548 1548 1548 1547 1547 1546 1546 1545 1544 1544 1542 1541 1539 1537 1536 1535 1535 1535 1534 1534 1534 1533 1532 1531 1530 1529 1528 1527 1526 1524 1523 1521 1520 1518 1516 1515 1514 1513 1512 1512 1511 1511 1510 1509 1509 1508 1508 1508 1508 1508 1509 1509 1509 1509 1509 1509 1508 1508 1508 1508 1507 1507 1507 1506 1505 1505 1504 1503 1503 1503 1502 1502 1502
1558 1557 1557 1556 1556 1555 1555 1554 1553 1552 1551 1551 1550 1550 1549 1549 1548 1548 1547 1546 1546 1545 1543 1542 1540 1538 1537 1536 1536 1536 1536 1535 1535 1534 1533 1532 1531 1530 1529 1527 1526 1525 1523 1521 1520 1518 1516 1515 1514 1513 1513 1512 1511 1511 1510 1510 1509 1509 1508 1508 1508 1508 1508 1509 1509 1509 1509 1508 1508 1508 1508 1508 1507 1507 1506 1506 1505 1504 1504 1503 1502 1502 1502 1502 1502
1558 1557 1557 1556 1556 1556 1555 1555 1554 1553 1553 1552 1552 1551 1551 1550 1550 1549 1548 1548 1547 1546 1545 1543 1542 1540 1539 1538 1538 1537 1537 1536 1536 1535 1534 1533 1532 1531 1529 1528 1527 1525 1523 1522 1520 1518 1517 1516 1515 1514 1513 1512 1512 1511 1511 1511 1510 1509 1509 1509 1509 1508 1508 1509 1509 1509 1509 1508 1508 1508 1508 1507 1507 1506 1506 1505 1505 1504 1503 1503 1502 1501 1501 1500 1500
1558 1557 1557 1557 1556 1556 1556 1556 1555 1554 1554 1553 1553 1552 1552 1552 1551 1550 1550 1549 1548 1547 1546 1545 1544 1543 1541 1540 1540 1539 1538 1537 1536 1536 1535 1534 1533 1532 1530 1529 1527 1526 1524 1522 1521 1519 1518 1517 1515 1514 1514 1513 1513 1512 1512 1512 1511 1510 1509 1509 1509 1509 1509 1509 1509 1508 1508 1508 1508 1508 1507 1507 1506 1506 1505 1505 1504 1504 1503 1502 1501 1501 1500 1499 1499
1558 1558 1557 1557 1557 1556 1556 1556 1556 1555 1555 1555 1554 1554 1553 1553 1552 1552 1551 1550 1550 1549 1548 1547 1546 1545 1544 1543 1542 1541 1540 1538 1537 1537 1536 1535 1534 1532 1531 1530 1528 1527 1525 1523 1522 1520 1519 1518 1517 1516 1515 1514 1514 1513 1512 1512 1512 1511 1510 1510 1510 1509 1509 1509 1509 1508 1508 1508 1508 1507 1507 1506 1506 1505 1504 1504 1504 1503 1503 1502 1501 1501 1500 1499 1499
1558 1558 1557 1557 1557 1557 1557 1557 1557 1556 1556 1556 1555 1555 1554 1554 1553 1553 1552 1551 1551 1550 1550 1549 1548 1547 1546 1545 1544 1542 1541 1540 1539 1538 1537 1536 1535 1533 1532 1531 1529 1528 1526 1524 1523 1522 1520 1519 1518 1517 1516 1515 1514 1514 1513 1513 1512 1512 1511 1511 1510 1510 1510 1509 1509 1508 1508 1508 1507 1507 1506 1506 1505 1504 1504 1504 1503 1503 1503 1502 1502 1501 1500 1500 1499
1558 1558 1558 1557 1557 1557 1557 1557 1558 1557 1557 1557 1556 1556 1555 1555 1554 1554 1553 1553 1552 1552 1551 1550 1549 1548 1547 1546 1545 1544 1543 1541 1540 1539 1538 1537 1536 1534 1533 1531 1530 1529 1527 1526 1524 1523 1521 1520 1519 1518 1517 1516 1515 1514 1513 1513 1512 1512 1512 1511 1511 1510 1510 1509 1509 1509 1508 1508 1507 1506 1506 1506 1505 1505 1504 1504 1503 1503 1503 1502 1501 1501 1500 1500 1500
1558 1558 1558 1558 1558 1558 1558 1558 1558 1558 1558 1557 1557 1557 1556 1556 1555 1555 1554 1554 1553 1553 1552 1551 1551 1550 1549 1548 1547 1545 1544 1543 1542 1541 1539 1538 1537 1535 1534 1532 1531 1530 1528 1526 1525 1524 1522 1521 1520 1519 1517 1516 1516 1515 1514 1513 1513 1512 1512 1511 1511 1510 1510 1509 1509 1508 1508 1508 1507 1506 1506 1505 1505 1505 1504 1504 1503 1503 1502 1502 1501 1500 1500 1499 1499
1558 1558 1558 1558 1558 1558 1558 1558 1558 1558 1558 1558 1558 1557 1557 1557 1556 1556 1555 1555 1554 1554 1553 1552 1552 1551 1550 1549 1548 1547 1546 1545 1543 1542 1541 1539 1538 1536 1535 1533 1532 1530 1529 1527 1526 1525 1523 1522 1521 1520 1518 1517 1516 1515 1515 1514 1513 1512 1512 1511 1511 1510 1510 1509 1509 1508 1508 1507 1507 1506 1506 1505 1505 1504 1504 1504 1503 1503 1502 1501 1501 1500 1500 1499 1499
1558 1558 1558 1558 1558 1558 1558 1559 1559 1559 1559 1558 1558 1558 1558 1558 1557 1557 1556 1556 1555 1555 1554 1553 1552 1552 1551 1550 1549 1548 1547 1546 1544 1543 1542 1540 1539 1537 1535 1534 1532 1531 1529 1528 1527 1525 1524 1523 1522 1521 1520 1518 1517 1516 1516 1515 1514 1513 1512 1511 1511 1510 1510 1509 1509 1508 1508 1508 1507 1507 1506 1505 1505 1505 1505 1504 1503 1503 1501 1501 1500 1500 1499 1499 1498
1558 1558 1558 1558 1558 1558 1558 1559 1559 1559 1559 1559 1558 1558 1558 1558 1558 1558 1557 1556 1556 1555 1554 1554 1553 1552 1552 1551 1550 1549 1548 1547 1545 1544 1542 1541 1539 1538 1536 1534 1533 1532 1530 1529 1527 1526 1525 1524 1523 1522 1521 1520 1518 1517 1517 1516 1515 1514 1512 1512 1511 1510 1510 1509 1509 1508 1508 1508 1508 1507 1507 1506 1505 1505 1505 1504 1503 1503 1501 1500 1500 1499 1499 1498 1498
1558 1558 1558 1558 1558 1558 1558 1559 1559 1559 1559 1559 1559 1559 1559 1558 1558 1558 1557 1557 1556 1556 1555 1554 1554 1553 1552 1551 1550 1549 1548 1547 1546 1545 1543 1542 1540 1538 1536 1535 1533 1531 1530 1529 1528 1527 1526 1525 1524 1523 1522 1521 1520 1519 1518 1517 1515 1514 1513 1512 1512 1511 1510 1509 1509 1509 1509 1508 1508 1508 1507 1507 1506 1505 1505 1504 1503 1502 1502 1500 1499 1498 1498 1498 1498
1558 1559 1559 1558 1559 1559 1559 1559 1559 1559 1559 1559 1559 1559 1559 1559 1558 1558 1558 1557 1557 1556 1555 1555 1554 1553 1552 1552 1551 1550 1549 1548 1547 1545 1544 1542 1541 1539 1537 1535 1533 1531 1530 1529 1528 1527 1526 1526 1525 1524 1523 1522 1521 1520 1519 1517 1516 1515 1514 1513 1512 1511 1511 1510 1509 1509 1509 1508 1508 1508 1507 1507 1506 1506 1505 1504 1503 1502 1501 1500 1498 1498 1497 1497 1497
1559 1559 1559 1559 1559 1559 1560 1560 1560 1560 1560 1560 1560 1560 1559 1559 1559 1558 1558 1557 1557 1556 1556 1555 1555 1554 1553 1552 1551 1550 1549 1548 1547 1546 1545 1543 1542 1540 1538 1536 1534 1532 1530 1529 1528 1528 1527 1527 1526 1525 1524 1523 1522 1521 1519 1518 1517 1515 1514 1513 1512 1511 1510 1509 1509 1509 1509 1508 1508 1507 1507 1507 1506 1505 1505 1504 1503 1501 1500 1499 1498 1497 1497 1497 1497
1559 1559 1560 1560 1560 1560 1560 1560 1560 1560 1560 1560 1560 1560 1560 1560 1559 1559 1558 1558 1557 1557 1556 1555 1555 1554 1553 1552 1551 1550 1549 1548 1547 1546 1545 1544 1542 1540 1539 1537 1535 1532 1531 1530 1529 1528 1528 1527 1527 1526 1525 1523 1522 1521 1520 1518 1517 1516 1514 1513 1511 1510 1509 1508 1508 1508 1508 1507 1507 1507 1507 1506 1506 1505 1504 1503 1503 1501 1500 1499 1498 1498 1497 1497 1497
1559 1560 1560 1560 1560 1561 1561 1561 1561 1561 1561 1561 1561 1561 1560 1560 1559 1559 1558 1558 1557 1557 1556 1555 1555 1554 1553 1552 1551 1550 1549 1548 1547 1546 1545 1544 1542 1541 1539 1537 1535 1533 1532 1530 1530 1529 1529 1528 1527 1526 1525 1524 1523 1522 1520 1519 1518 1516 1515 1513 1511 1510 1509 1508 1507 1507 1507 1506 1506 1506 1505 1505 1505 1505 1504 1504 1503 1502 1501 1500 1499 1499 1498 1498 1498
1560 1560 1560 1561 1561 1561 1561 1561 1561 1561 1561 1561 1561 1561 1561 1560 1560 1559 1559 1558 1557 1557 1556 1555 1554 1554 1553 1552 1551 1550 1549 1548 1547 1546 1545 1544 1542 1541 1540 1538 1536 1534 1532 1531 1531 1530 1529 1529 1528 1527 1525 1524 1523 1522 1521 1520 1518 1517 1515 1513 1511 1510 1509 1508 1507 1507 1506 1506 1505 1505 1504 1504 1504 1504 1504 1503 1503 1502 1501 1501 1500 1499 1499 1499 1499
1561 1561 1561 1561 1561 1561 1561 1561 1562 1562 1562 1561 1561 1561 1561 1560 1560 1559 1559 1558 1557 1557 1556 1555 1554 1553 1553 1552 1551 1550 1549 1548 1547 1546 1545 1544 1542 1541 1540 1538 1536 1535 1533 1532 1531 1531 1530 1529 1528 1527 1526 1524 1524 1523 1521 1520 1519 1517 1516 1514 1512 1511 1510 1509 1508 1507 1506 1505 1505 1504 1504 1504 1504 1504 1504 1503 1503 1502 1502 1501 1500 1500 1500 1500 1500
1561 1561 1562 1562 1562 1562 1562 1561 1562 1562 1562 1561 1561 1561 1561 1560 1560 1559 1559 1558 1557 1556 1556 1555 1554 1553 1552 1551 1550 1549 1548 1547 1546 1545 1544 1543 1542 1541 1540 1538 1537 1535 1534 1533 1532 1531 1530 1529 1528 1527 1526 1525 1524 1523 1522 1521 1519 1518 1516 1514 1513 1511 1510 1509 1508 1507 1506 1505 1505 1504 1504 1504 1504 1504 1503 1503 1503 1502 1502 1501 1501 1501 1500 1500 1500
1561 1562 1562 1562 1562 1562 1562 1562 1562 1562 1561 1561 1561 1561 1560 1560 1559 1559 1558 1557 1557 1556 1555 1554 1553 1552 1551 1551 1550 1549 1548 1547 1546 1544 1543 1542 1541 1540 1539 1538 1537 1535 1534 1534 1533 1532 1531 1530 1529 1528 1526 1525 1524 1523 1523 1521 1520 1519 1517 1515 1514 1512 1511 1510 1509 1508 1507 1506 1505 1505 1504 1504 1504 1504 1504 1503 1503 1503 1502 1502 1502 1501 1501 1501 1501
1562 1562 1562 1562 1562 1562 1562 1562 1562 1562 1562 1561 1561 1561 1560 1560 1559 1558 1558 1557 1556 1555 1554 1554 1553 1552 1551 1550 1549 1548 1547 1546 1545 1544 1543 1541 1540 1539 1539 1538 1537 1535 1534 1534 1533 1532 1531 1530 1529 1528 1527 1526 1524 1524 1523 1522 1521 1519 1518 1517 1515 1514 1513 1511 1510 1509 1508 1507 1506 1505 1505 1504 1504 1504 1504 1503 1503 1503 1503 1503 1502 1502 1502 1501 1501
1562 1562 1562 1562 1562 1562 1562 1562 1562 1562 1561 1561 1561 1560 1560 1559 1558 1558 1557 1556 1555 1554 1553 1553 1552 1551 1550 1549 1548 1547 1546 1545 1544 1543 1542 1541 1540 1539 1538 1537 1536 1535 1534 1533 1533 1532 1532 1531 1530 1529 1527 1526 1524 1524 1523 1522 1521 1520 1519 1518 1517 1515 1514 1513 1512 1510 1509 1508 1507 1506 1506 1505 1505 1504 1504 1503 1503 1503 1503 1503 1503 1502 1502 1502 1502
1562 1562 1562 1562 1562 1562 1562 1562 1561 1561 1561 1560 1560 1559 1559 1558 1558 1557 1556 1556 1555 1554 1553 1552 1551 1550 1549 1548 1547 1546 1545 1544 1543 1542 1541 1540 1539 1538 1537 1536 1535 1534 1534 1533 1533 1532 1532 1531 1530 1529 1528 1526 1525 1524 1524 1523 1522 1521 1520 1519 1518 1517 1515 1514 1513 1512 1510 1509 1508 1507 1506 1506 1505 1505 1504 1503 1503 1502 1502 1502 1503 1503 1502 1502 1502
1561 1562 1562 1562 1562 1562 1562 1562 1561 1561 1560 1559 1559 1558 1558 1558 1557 1556 1555 1555 1554 1553 1552 1551 1550 1549 1548 1547 1546 1545 1544 1543 1542 1541 1540 1539 1538 1537 1536 1535 1535 1534 1533 1533 1532 1532 1532 1531 1531 1529 1528 1527 1526 1525 1524 1523 1523 1522 1521 1520 1519 1518 1517 1515 1514 1513 1512 1510 1509 1508 1507 1506 1506 1505 1504 1503 1503 1502 1502 1502 1502 1502 1502 1502 1502
1561 1561 1561 1562 1562 1562 1562 1561 1561 1560 1559 1559 1558 1558 1557 1557 1556 1555 1554 1554 1553 1552 1551 1550 1549 1548 1547 1546 1545 1544 1543 1542 1541 1540 1539 1538 1537 1536 1535 1535 1534 1533 1533 1532 1532 1532 1531 1531 1530 1530 1528 1527 1526 1525 1524 1524 1523 1522 1521 1521 1520 1519 1518 1516 1515 1514 1512 1511 1510 1509 1508 1507 1506 1505 1504 1504 1503 1502 1502 1502 1502 1502 1502 1502 1502
1560 1561 1561 1561 1561 1561 1561 1561 1560 1560 1559 1558 1558 1557 1556 1556 1555 1554 1553 1553 1552 1551 1550 1549 1548 1547 1546 1545 1544 1543 1542 1541 1540 1539 1538 1537 1536 1535 1534 1534 1533 1532 1532 1532 1531 1531 1531 1530 1530 1529 1529 1527 1526 1525 1524 1524 1523 1523 1522 1521 1520 1519 1518 1517 1516 1514 1513 1512 1511 1510 1509 1508 1507 1506 1505 1504 1503 1503 1502 1502 1501 1501 1501 1501 1501
1560 1560 1560 1561 1561 1561 1561 1560 1560 1559 1559 1558 1557 1556 1556 1555 1555 1554 1553 1552 1551 1550 1550 1549 1548 1547 1545 1544 1543 1542 1541 1540 1539 1538 1537 1536 1535 1534 1533 1533 1532 1532 1531 1531 1531 1530 1530 1530 1529 1529 1528 1527 1526 1525 1524 1524 1523 1523 1522 1521 1521 1520 1519 1518 1517 1515 1514 1513 1512 1511 1510 1509 1507 1506 1505 1504 1504 1503 1503 1502 1502 1501 1501 1501 1501
1559 1559 1559 1560 1560 1560 1560 1559 1559 1559 1558 1558 1557 1556 1555 1554 1554 1553 1552 1551 1551 1550 1549 1549 1548 1547 1545 1544 1542 1541 1540 1539 1538 1537 1536 1535 1534 1533 1532 1532 1531 1531 1531 1530 1530 1530 1529 1529 1529 1528 1528 1527 1526 1525 1524 1523 1523 1522 1522 1521 1521 1520 1519 1518 1517 1516 1515 1514 1513 1512 1511 1509 1508 1507 1506 1505 1504 1503 1503 1502 1502 1501 1501 1501 1501
1558 1558 1559 1559 1559 1559 1559 1559 1559 1558 1558 1558 1557 1556 1555 1554 1553 1553 1552 1551 1551 1550 1549 1549 1548 1547 1545 1544 1542 1541 1540 1538 1537 1536 1535 1534 1533 1532 1531 1531 1530 1530 1530 1529 1529 1529 1529 1529 1528 1528 1527 1527 1526 1525 1524 1523 1522 1522 1522 1521 1521 1520 1519 1519 1517 1516 1515 1514 1513 1512 1511 1510 1509 1508 1507 1505 1504 1504 1503 1502 1502 1501 1501 1501 1501
1557 1558 1558 1558 1558 1558 1558 1558 1558 1558 1557 1557 1557 1556 1555 1554 1553 1553 1552 1551 1550 1550 1549 1549 1548 1547 1545 1544 1543 1541 1540 1538 1537 1536 1535 1534 1533 1532 1531 1530 1529 1529 1529 1528 1528 1528 1528 1528 1528 1527 1527 1526 1526 1525 1524 1523 1522 1522 1521 1521 1520 1520 1519 1519 1518 1517 1516 1515 1514 1513 1512 1511 1510 1509 1508 1506 1505 1504 1503 1502 1502 1501 1501 1500 1500
1557 1557 1557 1557 1558 1558 1558 1558 1557 1557 1557 1556 1556 1555 1555 1554 1553 1552 1551 1551 1550 1549 1549 1548 1547 1546 1545 1544 1542 1541 1540 1538 1537 1535 1534 1533 1532 1531 1530 1529 1529 1528 1528 1527 1527 1527 1527 1527 1527 1526 1526 1526 1525 1525 1524 1523 1522 1521 1521 1520 1520 1520 1519 1518 1518 1517 1516 1515 1514 1513 1512 1511 1510 1509 1508 1507 1506 1505 1504 1503 1502 1502 1501 1500 1500
1556 1556 1556 1557 1557 1557 1557 1557 1556 1556 1556 1555 1555 1554 1554 1553 1552 1552 1551 1550 1549 1549 1548 1547 1546 1545 1544 1543 1542 1540 1539 1538 1537 1535 1534 1533 1532 1531 1530 1529 1528 1527 1527 1526 1526 1526 1526 1526 1526 1526 1525 1525 1525 1524 1523 1523 1522 1521 1520 1520 1519 1519 1519 1518 1517 1517 1516 1515 1514 1513 1512 1512 1511 1510 1509 1508 1506 1505 1504 1504 1503 1502 1501 1501 1500
1555 1555 1555 1556 1556 1556 1556 1556 1555 1555 1555 1554 1554 1553 1553 1552 1551 1551 1550 1549 1548 1547 1546 1545 1544 1543 1542 1541 1540 1539 1538 1537 1536 1535 1534 1532 1531 1530 1529 1528 1528 1527 1526 1526 1526 1525 1525 1526 1526 1525 1525 1525 1524 1524 1523 1523 1522 1521 1520 1519 1519 1518 1518 1518 1517 1516 1516 1515 1514 1513 1513 1512 1511 1510 1509 1508 1507 1506 1505 1504 1503 1502 1502 1501 1500
1554 1554 1554 1555 1555 1555 1554 1554 1554 1554 1553 1553 1552 1552 1551 1551 1550 1549 1549 1548 1547 1546 1545 1544 1543 1542 1541 1540 1539 1538 1536 1535 1535 1534 1533 1532 1531 1530 1529 1528 1527 1526 1526 1525 1525 1525 1524 1524 1524 1524 1524 1524 1523 1523 1523 1522 1521 1521 1520 1519 1518 1518 1517 1517 1517 1516 1516 1515 1514 1513 1513 1512 1511 1510 1509 1508 1507 1506 1506 1505 1504 1503 1502 1502 1501
1552 1553 1553 1553 1553 1553 1553 1553 1552 1552 1552 1551 1551 1551 1550 1549 1549 1548 1547 1546 1545 1544 1543 1542 1541 1540 1539 1538 1537 1536 1535 1534 1533 1532 1531 1531 1530 1529 1528 1527 1526 1526 1525 1525 1524 1524 1523 1523 1523 1523 1523 1523 1522 1522 1522 1521 1521 1520 1519 1518 1517 1517 1517 1517 1516 1516 1515 1515 1514 1513 1513 1512 1511 1510 1509 1509 1508 1507 1506 1505 1505 1504 1503 1502 1502
1551 1552 1552 1552 1552 1552 1551 1551 1551 1551 1550 1550 1550 1549 1548 1548 1547 1547 1546 1545 1544 1543 1542 1541 1540 1539 1538 1537 1536 1534 1534 1532 1531 1531 1530 1529 1528 1527 1527 1526 1525 1525 1524 1524 1523 1523 1522 1522 1522 1522 1522 1521 1521 1521 1520 1520 1520 1519 1518 1518 1517 1516 1516 1516 1516 1515 1515 1514 1514 1513 1513 1512 1511 1510 1510 1509 1508 1507 1506 1506 1505 1505 1504 1503 1503
1549 1550 1550 1550 1550 1550 1550 1550 1549 1549 1549 1549 1548 1547 1547 1546 1546 1545 1544 1543 1542 1541 1540 1539 1538 1537 1536 1535 1534 1533 1532 1531 1530 1529 1528 1527 1527 1526 1525 1525 1524 1523 1523 1523 1522 1522 1521 1521 1521 1520 1520 1520 1520 1519 1519 1519 1519 1518 1518 1517 1516 1515 1515 1515 1515 1514 1514 1514 1513 1513 1512 1512 1511 1510 1510 1509 1508 1507 1506 1506 1505 1505 1504 1504 1504
1548 1548 1548 1548 1548 1548 1548 1548 1548 1547 1547 1547 1546 1546 1545 1545 1544 1544 1543 1542 1541 1540 1539 1538 1537 1536 1535 1534 1532 1531 1530 1529 1528 1527 1526 1525 1525 1524 1523 1523 1523 1522 1522 1521 1521 1520 1520 1520 1519 1519 1519 1519 1518 1518 1518 1518 1517 1517 1517 1516 1515 1515 1514 1514 1514 1514 1513 1513 1513 1512 1512 1512 1511 1510 1510 1509 1508 1507 1507 1506 1506 1505 1505 1505 1504
1546 1546 1546 1547 1547 1546 1546 1546 1546 1546 1545 1545 1545 1544 1544 1543 1542 1542 1541 1540 1540 1538 1537 1536 1535 1534 1533 1532 1530 1529 1528 1527 1526 1525 1525 1524 1523 1522 1521 1521 1521 1520 1520 1520 1519 1519 1518 1518 1518 1518 1517 1517 1517 1516 1516 1516 1516 1516 1515 1515 1514 1514 1513 1513 1513 1513 1512 1512 1512 1512 1511 1511 1511 1510 1509 1509 1508 1507 1507 1506 1506 1505 1505 1505 1505
1545 1545 1545 1545 1545 1545 1545 1544 1544 1544 1543 1543 1543 1542 1542 1541 1541 1540 1539 1538 1538 1537 1536 1535 1534 1533 1532 1530 1529 1527 1526 1525 1524 1523 1523 1522 1521 1520 1520 1519 1519 1518 1518 1518 1518 1517 1517 1516 1516 1516 1516 1515 1515 1515 1514 1514 1514 1514 1514 1513 1513 1513 1512 1512 1512 1512 1511 1511 1511 1511 1511 1510 1510 1510 1509 1508 1508 1507 1507 1506 1506 1506 1505 1505 1505
1543 1543 1543 1542 1543 1543 1543 1542 1542 1542 1541 1541 1541 1541 1540 1540 1539 1538 1537 1537 1536 1535 1534 1533 1532 1531 1530 1529 1527 1526 1524 1523 1522 1521 1520 1520 1519 1519 1518 1517 1517 1516 1516 1516 1516 1515 1515 1514 1514 1514 1514 1514 1513 1513 1513 1513 1513 1513 1513 1512 1512 1511 1511 1511 1511 1510 1510 1510 1510 1510 1510 1509 1509 1509 1508 1508 1508 1507 1507 1506 1506 1505 1505 1505 1505
1541 1541 1541 1541 1541 1541 1540 1541 1540 1540 1539 1539 1539 1538 1538 1538 1537 1536 1536 1535 1534 1533 1532 1532 1531 1529 1528 1527 1526 1524 1523 1522 1520 1519 1518 1518 1517 1517 1516 1516 1515 1514 1514 1514 1513 1513 1513 1513 1512 1512 1512 1512 1511 1511 1511 1511 1511 1511 1511 1511 1510 1510 1510 1510 1509 1509 1509 1509 1509 1509 1509 1508 1508 1507 1507 1507 1507 1507 1506 1506 1505 1505 1505 1505 1505
1539 1539 1539 1539 1539 1538 1538 1538 1538 1537 1537 1537 1537 1536 1536 1536 1535 1535 1534 1533 1532 1532 1531 1530 1529 1528 1527 1525 1524 1523 1522 1520 1519 1517 1517 1516 1516 1515 1515 1514 1513 1512 1512 1512 1511 1511 1511 1511 1510 1510 1510 1510 1509 1509 1509 1509 1509 1509 1509 1509 1509 1509 1509 1508 1508 1508 1508 1508 1508 1508 1507 1507 1506 1506 1506 1505 1506 1506 1505 1505 1505 1505 1505 1505 1505
1537 1537 1537 1537 1536 1536 1536 1535 1535 1535 1535 1535 1534 1534 1534 1534 1533 1533 1532 1531 1530 1530 1529 1528 1527 1526 1525 1524 1522 1521 1520 1519 1518 1516 1515 1514 1514 1513 1513 1512 1511 1510 1510 1509 1509 1509 1509 1509 1508 1508 1508 1508 1507 1507 1507 1507 1507 1508 1508 1508 1508 1508 1507 1507 1507 1507 1506 1506 1506 1506 1506 1505 1505 1504 1504 1504 1504 1504 1504 1504 1504 1504 1504 1505 1505
1535 1535 1535 1534 1534 1533 1532 1532 1532 1532 1532 1532 1532 1532 1532 1532 1531 1531 1530 1529 1528 1528 1527 1526 1525 1524 1523 1522 1521 1520 1519 1518 1516 1515 1514 1513 1512 1512 1511 1510 1509 1508 1508 1507 1507 1507 1506 1507 1506 1506 1506 1506 1506 1505 1505 1505 1505 1506 1506 1506 1506 1506 1506 1506 1506 1505 1505 1505 1505 1505 1505 1504 1503 1503 1503 1503 1503 1503 1503 1503 1503 1503 1504 1504 1504
1533 1533 1532 1532 1532 1531 1530 1530 1530 1530 1530 1530 1530 1530 1529 1529 1529 1528 1528 1527 1526 1525 1525 1524 1523 1522 1521 1520 1519 1518 1517 1516 1515 1514 1512 1511 1511 1510 1509 1508 1507 1506 1506 1505 1505 1504 1504 1504 1504 1504 1504 1504 1504 1503 1503 1503 1504 1504 1504 1504 1505 1505 1505 1505 1504 1504 1504 1504 1504 1504 1504 1503 1502 1502 1502 1502 1502 1502 1502 1502 1502 1502 1503 1503 1504
1531 1530 1530 1530 1529 1529 1529 1528 1528 1528 1528 1528 1528 1527 1527 1526 1526 1526 1526 1525 1524 1523 1522 1521 1521 1520 1519 1518 1517 1516 1515 1514 1513 1512 1511 1510 1508 1507 1506 1505 1505 1504 1504 1503 1502 1502 1502 1502 1502 1502 1502 1502 1502 1501 1501 1501 1502 1502 1502 1502 1503 1503 1503 1503 1503 1503 1503 1503 1503 1503 1503 1502 1502 1501 1501 1501 1501 1501 1501 1501 1501 1502 1502 1502 1503
Wind_Speed
5 6 8 9 11 12 14 14 14 13 12 13 13 12 12 12 10 9 8 9 11 13 16 19 22 22 20 18 16 11 8 7 7 6 4 4 5 6 8 9 10 11 12 13 11 11 11 10 9 9 9 10 10 9 9 10 10 9 9 9 8 8 7 5 2 1 2 3 3 4 5 5 5 5 6 6 7 8 9 8 6 7 9 8 11
6 6 7 9 11 12 14 14 14 13 14 15 15 15 14 14 12 11 11 12 14 16 18 20 21 20 16 15 15 12 10 10 9 7 7 7 7 9 10 11 13 13 14 13 13 13 13 13 12 9 8 9 11 10 9 9 10 10 11 10 9 9 8 7 5 4 3 3 3 3 3 4 5 5 5 5 7 8 8 9 8 8 9 10 11
6 6 7 9 11 13 14 14 13 14 15 17 17 16 15 13 12 12 13 14 14 16 18 18 19 18 15 14 15 14 13 12 10 9 9 9 10 11 12 13 13 13 14 14 14 15 15 15 14 11 8 7 9 9 9 8 8 8 10 11 10 9 9 8 8 7 5 3 4 4 3 4 4 5 6 6 6 7 7 8 8 9 10 9 10
5 6 8 9 11 12 13 12 12 14 16 18 17 16 16 16 15 14 14 14 14 15 16 17 18 17 15 13 14 15 14 13 11 10 11 11 12 13 13 14 14 14 14 14 15 16 17 16 15 13 9 6 8 9 9 9 7 6 6 7 8 8 9 9 9 8 7 5 5 5 4 4 3 4 4 4 5 6 6 6 6 8 10 9 9
5 6 8 9 10 11 12 13 13 14 16 17 17 17 19 20 19 17 16 15 15 16 17 18 19 19 16 13 13 14 14 13 12 12 12 13 15 15 14 14 14 13 12 13 14 15 16 15 14 13 10 7 8 9 9 10 8 7 5 4 3 4 7 9 8 8 7 6 5 5 5 5 4 3 2 1 2 3 4 5 5 6 8 9 9
5 6 7 7 9 11 12 14 15 15 15 15 16 18 19 20 19 18 17 16 17 18 20 22 23 22 18 13 11 12 13 13 12 13 14 15 17 17 15 14 13 12 13 13 14 15 14 13 13 13 11 9 9 9 9 10 9 7 5 3 2 2 3 7 7 6 5 4 5 6 7 7 6 6 5 3 2 2 3 4 4 5 6 7 9
5 6 6 8 9 10 11 14 15 15 14 14 15 17 18 18 18 17 17 17 19 21 24 27 28 26 23 17 13 12 12 13 13 14 15 16 17 18 17 15 14 14 15 15 15 14 13 12 12 12 12 10 10 9 9 10 10 9 6 4 3 3 1 3 6 6 6 5 7 8 9 9 8 8 8 7 6 5 4 5 4 4 6 7 8
6 7 6 7 8 9 10 12 13 14 14 13 14 15 16 16 16 16 16 17 19 21 24 27 28 28 27 23 18 15 14 15 15 14 15 16 17 19 19 17 16 17 16 16 17 16 14 13 12 12 12 11 10 10 8 8 10 11 9 5 4 4 3 2 3 5 6 7 9 9 9 10 10 9 9 8 7 6 6 5 5 5 5 7 8
6 6 6 6 7 8 9 11 12 13 13 13 13 14 14 14 14 14 15 16 18 19 21 23 25 26 26 25 23 21 19 18 17 15 15 16 18 19 19 18 17 17 17 17 18 18 16 14 13 11 11 10 9 9 7 5 7 10 11 8 6 5 6 6 4 4 5 6 8 8 9 10 10 10 10 10 8 7 6 6 6 5 5 6 6
6 6 6 7 8 8 8 9 10 11 12 12 12 12 13 14 13 12 14 15 16 17 18 20 21 23 24 24 24 24 23 22 19 17 16 17 17 18 19 19 17 17 17 17 17 18 17 15 13 11 9 9 9 8 6 4 4 7 9 9 8 8 8 9 9 8 9 9 8 8 8 9 9 9 10 10 9 8 7 6 5 5 5 5 4
6 6 7 7 6 6 7 7 8 10 10 11 11 11 11 12 12 11 12 13 13 14 16 17 19 20 21 22 23 24 24 24 21 19 18 17 17 17 18 18 17 16 16 15 14 15 16 15 14 12 10 9 9 7 6 5 5 7 8 9 10 11 11 11 11 11 12 11 10 9 8 7 6 6 7 8 8 8 7 6 6 6 5 5 4
7 7 7 7 5 4 4 5 7 8 9 9 10 9 9 10 10 10 10 11 12 13 14 15 17 18 18 19 20 22 23 23 23 22 21 20 19 18 18 17 17 16 16 15 13 12 13 14 14 14 12 10 9 9 7 5 5 7 9 9 10 11 11 12 12 12 12 10 9 9 8 8 7 5 5 5 6 6 6 5 5 5 5 6 5
6 6 6 5 3 2 2 3 5 6 7 8 8 8 8 8 8 8 9 10 11 12 13 14 15 15 16 17 18 19 20 22 23 23 22 21 20 19 18 17 17 16 15 14 12 10 11 12 13 14 14 12 11 11 11 8 7 8 8 9 9 9 10 11 11 10 9 8 8 7 7 8 7 7 7 7 7 6 5 4 3 3 4 6 7
5 6 6 4 2 2 2 1 3 5 5 6 5 6 6 7 7 7 7 8 9 10 11 12 13 13 14 15 15 16 18 19 21 22 23 22 21 21 20 18 17 15 14 13 12 10 9 10 13 15 15 14 13 14 14 12 11 10 9 8 8 8 8 7 7 7 7 7 8 7 5 6 7 7 8 9 10 8 7 7 5 3 3 5 7
5 6 5 4 3 3 4 3 2 3 4 4 4 4 4 5 6 6 6 7 8 9 10 11 12 12 12 13 13 14 15 17 19 21 22 23 22 21 21 20 18 15 12 12 11 11 10 9 11 14 15 15 14 14 15 15 13 12 11 9 7 7 7 7 6 6 7 8 9 8 6 6 6 7 8 10 11 12 12 11 9 6 4 4 6
6 6 6 6 6 6 6 5 4 3 3 3 3 3 3 4 4 4 4 6 7 8 9 9 10 11 11 12 12 12 13 14 16 18 20 22 23 22 22 22 20 16 12 10 11 12 11 9 10 13 14 14 14 14 15 16 15 13 13 11 7 4 5 6 7 6 7 8 9 8 7 7 8 9 10 11 13 14 14 13 11 7 4 4 5
6 7 7 7 8 8 8 6 5 4 3 3 3 3 3 3 3 2 3 4 6 7 8 8 9 10 11 11 12 12 12 13 14 16 18 20 22 23 22 23 22 18 12 10 10 11 11 9 10 12 13 13 14 15 15 17 16 15 14 12 9 4 2 2 4 5 6 6 6 6 7 8 10 11 12 13 15 15 14 12 9 6 4 2 3
7 6 6 6 7 7 7 5 4 3 2 3 4 5 5 4 3 3 3 5 6 7 7 8 8 9 10 10 11 12 12 12 13 14 16 18 20 22 22 23 23 19 13 9 10 10 9 9 10 13 12 12 13 15 16 16 15 16 16 14 12 8 4 3 3 4 4 4 5 6 7 9 10 12 12 13 14 14 13 12 8 5 3 2 2
6 6 5 5 5 5 5 4 4 4 3 3 4 5 5 5 4 5 5 6 7 7 8 8 8 9 10 10 11 12 12 12 13 13 14 16 18 21 22 22 23 20 14 11 10 9 8 8 11 12 11 11 14 16 16 15 15 15 17 17 16 13 9 5 5 7 7 7 7 8 9 9 11 11 11 11 12 12 12 13 10 7 5 2 1
7 6 5 5 5 4 5 5 5 5 4 4 4 5 5 6 6 6 6 7 8 8 9 9 9 9 10 11 11 12 13 13 13 14 14 14 16 19 20 21 21 20 16 13 10 7 7 10 12 12 10 12 15 16 16 15 15 16 18 19 18 16 13 9 7 6 7 8 10 11 11 10 10 9 9 9 9 9 10 12 10 9 9 7 4
9 7 6 6 5 4 4 5 5 5 5 4 4 5 5 5 6 6 6 7 9 10 10 10 9 9 10 11 11 12 13 14 14 14 14 14 14 16 18 19 19 18 16 14 10 8 8 11 13 13 12 13 15 16 15 13 14 16 18 19 18 15 13 10 9 8 8 7 8 9 9 9 8 7 7 7 7 8 9 10 10 9 8 7 6
9 8 7 6 5 4 4 4 4 4 4 4 3 3 3 4 5 6 6 7 9 10 10 10 10 10 10 11 12 13 13 14 15 15 14 13 13 14 16 18 17 16 15 13 11 10 10 12 13 13 13 14 15 14 13 11 13 16 18 18 16 13 11 11 10 10 9 8 8 8 7 6 5 5 6 6 7 8 9 9 10 9 8 7 7
8 7 7 6 5 5 4 3 3 3 2 2 2 3 4 5 6 7 9 10 10 10 10 10 11 11 11 11 12 13 13 14 14 15 15 13 12 13 15 16 15 14 13 13 12 11 10 11 12 12 13 15 15 12 11 10 13 17 19 17 14 12 11 11 11 11 10 9 9 7 6 5 4 4 5 6 5 8 10 10 9 9 8 7 8
7 6 5 4 4 4 4 3 3 2 1 3 4 5 6 7 8 9 10 11 11 11 10 9 10 11 11 11 11 12 13 14 14 15 15 13 12 12 14 15 15 13 11 12 12 11 10 10 12 13 14 15 14 12 10 10 12 16 18 16 13 12 12 12 12 11 10 9 7 6 5 4 5 5 6 6 6 6 8 8 8 8 8 7 7
5 4 3 2 2 2 2 2 1 1 2 3 5 6 6 8 8 9 9 10 11 12 11 9 9 10 11 11 11 11 13 14 14 15 15 14 13 12 13 15 15 12 10 10 11 11 10 11 12 13 15 16 14 10 8 10 12 14 15 14 15 15 15 14 14 13 12 11 10 8 7 6 6 6 7 8 7 5 3 3 4 5 6 6 7
4 3 2 1 1 1 2 2 3 4 5 6 7 7 7 8 8 8 9 9 10 11 11 10 10 11 12 12 12 12 13 14 15 15 15 14 13 12 13 14 13 10 8 8 9 10 11 11 11 12 15 17 14 8 7 9 10 11 11 13 15 15 16 16 15 15 14 13 12 10 9 8 8 8 8 8 8 6 1 2 0 2 2 3 6
3 2 1 1 2 3 3 3 5 6 7 9 10 10 9 10 10 11 11 11 11 11 11 11 12 13 13 13 13 13 13 14 15 15 14 14 14 12 12 12 11 9 7 7 7 8 9 10 10 12 15 16 12 7 6 8 8 8 10 12 14 15 16 16 16 15 14 13 12 11 10 9 8 8 8 8 8 7 3 2 3 2 3 4 5
2 1 1 3 4 5 5 5 6 7 8 9 10 11 10 11 11 12 12 13 13 12 12 13 13 14 15 15 15 15 14 14 14 15 14 14 14 13 11 10 10 8 7 7 7 7 7 8 9 11 13 14 12 7 6 7 7 7 9 11 13 15 16 16 16 16 15 14 12 10 9 8 8 9 9 9 8 8 5 2 2 3 4 5 5
1 1 3 5 6 6 6 6 7 8 8 8 9 10 10 11 12 13 13 13 13 13 14 14 14 15 15 16 16 16 15 14 15 15 15 15 15 13 11 9 9 8 7 7 7 7 7 7 8 10 12 13 12 8 6 5 6 7 8 9 11 14 16 16 16 16 17 16 13 11 9 8 8 9 9 9 8 8 7 4 2 3 4 6 7
2 3 4 5 6 8 8 8 8 8 9 10 10 11 11 11 12 13 13 12 12 13 13 13 14 15 16 16 16 16 16 16 16 16 15 15 15 13 11 8 8 8 7 7 7 8 7 7 7 8 10 12 12 9 7 5 6 7 7 8 9 11 14 17 17 17 17 17 16 14 11 10 9 8 8 7 7 8 7 5 3 2 3 4 5
3 4 5 6 8 9 9 8 7 8 8 9 11 12 12 10 9 10 12 13 12 11 11 12 13 14 16 16 16 16 16 16 15 15 14 13 13 12 10 8 7 8 8 8 8 7 7 7 7 7 8 10 11 10 8 7 7 7 7 7 8 9 11 15 17 17 16 16 17 16 14 12 11 10 8 7 7 7 6 5 4 3 2 3 3
2 3 5 7 8 8 7 7 7 7 7 8 10 12 12 12 8 6 8 11 11 9 9 10 11 12 13 14 15 15 15 14 13 13 13 13 13 11 9 8 7 8 8 8 8 8 7 7 5 5 6 8 9 10 9 8 8 8 8 7 7 8 10 12 15 16 15 15 15 15 15 14 12 10 10 8 7 6 5 4 3 3 3 3 4
2 2 3 3 3 4 5 6 7 7 7 8 10 10 11 11 9 5 4 6 7 6 7 8 9 10 11 12 13 13 12 11 12 12 12 12 12 11 10 9 8 8 8 8 7 7 7 6 4 3 4 6 8 9 9 9 9 9 9 9 8 8 9 10 12 15 15 14 14 14 15 15 13 11 11 10 8 6 5 4 4 5 5 5 5
2 2 1 1 2 3 5 6 7 7 8 9 9 10 10 9 8 6 5 5 5 5 6 7 9 11 12 12 12 12 11 10 10 11 11 11 11 11 10 10 9 8 8 7 7 7 6 5 3 2 3 5 7 8 8 9 10 9 10 10 10 9 9 9 10 13 14 13 13 13 14 15 14 13 13 12 10 8 6 6 5 5 6 7 6
4 3 3 3 3 4 5 6 6 7 8 9 9 9 9 8 8 8 8 8 8 9 10 10 11 12 14 14 14 13 11 10 9 9 10 10 10 11 10 10 9 9 8 7 7 7 7 5 3 3 3 4 6 7 8 8 9 10 10 10 10 9 9 8 9 11 13 12 12 11 12 13 13 13 14 13 11 8 8 8 7 7 7 8 8
4 4 4 5 4 5 5 6 7 9 10 9 9 9 9 10 10 11 11 12 13 14 15 15 14 14 15 16 16 15 13 12 10 9 8 9 9 10 10 9 9 9 8 8 8 8 8 6 5 4 3 4 6 7 8 8 8 9 10 10 10 9 8 7 9 11 12 12 11 11 11 12 12 12 13 13 10 9 9 9 9 9 8 8 8
4 4 5 6 6 6 7 8 9 10 10 10 9 9 11 12 13 14 14 15 15 15 17 17 17 15 14 14 14 15 15 14 12 10 9 9 9 9 9 9 8 8 8 8 8 10 10 9 7 5 4 4 6 8 8 8 7 8 9 9 9 8 8 8 9 11 12 12 12 10 10 10 11 11 12 12 10 8 8 10 11 8 6 7 8
5 6 6 7 6 7 8 8 9 9 10 10 10 11 12 14 14 15 16 16 16 17 18 18 18 16 14 12 12 14 15 15 14 13 11 10 9 8 8 8 7 7 7 8 8 9 10 10 9 6 4 4 6 7 8 7 7 7 8 8 8 8 8 8 10 11 11 12 12 11 9 9 10 10 11 12 11 8 7 10 10 7 6 7 8
7 7 7 7 7 8 9 10 10 10 10 10 10 11 13 14 15 16 17 18 18 19 19 19 18 16 14 12 12 13 14 15 15 14 13 12 10 9 8 8 6 5 6 7 8 9 9 10 10 8 6 5 6 7 7 7 6 6 8 8 8 9 9 9 10 11 11 12 12 11 9 8 8 9 9 11 11 8 7 9 8 5 5 8 8
8 8 8 8 9 10 11 11 11 10 10 11 12 13 14 15 15 17 19 19 19 19 18 17 16 14 13 12 13 13 14 14 14 14 15 15 13 11 10 9 8 7 7 7 8 9 9 10 11 11 10 10 10 10 10 10 8 6 7 8 8 9 10 10 11 11 10 11 12 11 9 7 7 7 8 10 11 8 7 8 8 4 4 6 7
9 9 9 10 11 12 12 12 11 10 10 11 13 14 15 16 17 19 19 19 18 17 16 15 14 13 12 12 13 14 13 13 12 12 13 15 15 13 11 10 9 9 8 8 9 10 10 10 10 11 12 12 12 12 12 11 10 8 7 7 7 8 10 11 11 11 10 10 11 11 10 8 6 6 6 8 10 8 7 8 7 3 4 5 7
10 10 11 12 12 13 13 12 12 12 12 13 15 16 17 18 19 19 18 17 17 16 15 14 13 13 13 14 15 15 15 13 12 11 11 12 13 14 14 12 11 10 10 10 10 11 11 11 10 10 9 10 11 12 12 11 10 9 8 7 7 7 9 10 11 11 10 10 10 10 10 8 7 6 6 7 9 8 6 7 5 3 4 4 5
12 12 13 13 13 13 12 13 13 14 15 15 16 17 18 20 21 20 19 18 18 17 15 13 13 13 14 15 15 16 16 15 14 13 11 10 9 11 13 13 12 11 11 11 12 12 13 13 11 10 9 8 9 11 12 11 10 9 8 8 8 8 8 9 11 11 10 9 9 10 10 8 8 7 6 6 8 8 6 6 4 2 4 4 3
14 14 14 14 14 14 14 14 14 15 16 15 16 18 20 21 22 21 20 20 19 17 14 14 14 14 14 15 15 15 15 15 15 15 14 11 9 8 10 12 12 12 12 12 12 13 13 13 11 10 10 9 8 10 12 12 10 9 8 8 9 9 9 9 9 9 10 9 9 9 9 9 9 8 7 6 6 6 6 6 4 1 4 3 1
14 14 14 14 14 15 15 15 15 16 16 16 17 18 20 20 20 20 20 20 19 16 15 16 16 15 15 16 15 15 15 15 15 15 14 13 11 8 8 10 11 12 13 13 13 13 13 12 10 8 8 8 8 10 12 13 11 8 6 7 8 9 9 9 8 8 9 10 9 8 8 9 9 9 8 6 5 5 5 5 3 2 4 3 1
13 13 12 13 13 14 14 14 15 16 16 16 17 19 20 19 18 18 19 19 17 16 17 17 17 17 16 16 16 15 14 14 14 14 14 13 11 9 8 9 9 11 12 13 14 14 13 12 9 7 6 7 8 9 11 13 11 7 5 6 7 8 9 9 8 7 7 8 8 8 9 10 10 10 10 7 5 4 4 4 3 3 5 5 3
14 14 14 15 15 16 17 17 17 17 16 16 17 19 19 18 17 17 18 17 17 17 17 17 17 17 16 16 16 14 13 13 13 12 12 12 11 10 9 8 8 9 10 12 13 14 12 11 9 7 6 7 8 9 11 12 11 7 5 5 6 7 8 8 7 5 5 6 6 8 10 11 11 11 11 9 7 6 4 3 3 4 6 6 5
14 15 16 17 18 19 20 20 18 17 16 16 17 19 19 17 16 16 17 17 17 17 17 16 16 16 16 16 15 13 12 13 13 12 11 11 11 11 10 10 9 8 9 11 12 13 12 10 9 8 6 7 8 9 10 10 10 8 6 5 5 5 5 4 3 2 2 2 4 6 9 10 10 10 10 9 8 7 5 4 4 6 7 7 6
15 16 17 17 18 20 20 18 16 15 15 15 16 18 18 18 17 16 16 16 16 16 15 15 15 15 15 15 15 14 13 13 13 13 12 11 11 11 12 12 11 10 10 10 11 12 11 10 9 9 8 8 8 9 10 10 9 8 7 7 5 4 3 2 1 2 2 1 2 5 7 8 8 9 9 8 8 8 6 5 5 7 9 9 6
15 16 16 17 18 18 17 15 14 14 14 15 16 17 19 19 19 17 16 16 15 15 14 14 14 15 15 15 15 14 14 15 14 14 13 13 12 13 14 14 13 12 11 11 11 11 11 10 10 9 9 8 8 8 9 9 9 9 9 8 8 6 5 3 2 2 2 1 2 4 6 7 7 7 7 7 8 8 7 6 6 8 10 10 7
15 16 16 17 17 16 15 15 15 15 16 17 18 19 21 21 20 19 17 17 16 15 15 15 15 16 16 16 16 16 16 16 16 16 15 14 14 14 14 14 14 13 12 11 11 11 11 10 10 9 9 9 8 8 8 9 9 9 10 10 10 9 8 7 5 3 3 2 2 3 4 6 7 6 6 6 7 8 8 8 7 8 11 11 8
Wind_Direction
87 65 53 39 28 24 22 24 24 24 27 28 28 32 36 38 34 23 15 12 9 5 1 359 359 2 5 10 18 33 55 64 64 62 44 18 6 358 355 353 351 353 352 347 344 341 339 339 335 332 331 327 315 298 285 278 276 277 279 287 292 290 300 321 320 266 291 323 344 345 357 6 357 353 5 9 3 5 8 1 323 279 274 281 267
83 57 43 33 27 27 28 28 27 28 32 35 37 39 41 43 38 28 21 16 11 8 4 2 4 10 17 22 30 46 62 65 63 55 42 28 17 9 2 357 354 352 352 351 348 345 343 342 339 336 334 335 334 325 309 290 276 269 267 275 289 289 290 306 319 310 280 275 306 323 339 355 352 350 0 9 13 7 1 3 359 335 327 335 325
70 46 33 32 33 35 33 31 31 33 36 38 39 39 39 38 32 26 24 18 14 11 8 8 10 17 29 35 38 51 62 65 62 50 39 29 16 9 2 359 359 360 359 358 354 350 350 350 350 355 354 349 351 352 343 321 293 274 263 264 275 284 289 301 311 313 304 291 306 314 327 349 357 4 5 6 11 6 355 358 0 359 358 352 344
53 35 30 35 40 40 39 41 41 41 43 41 39 42 48 49 45 41 37 32 30 26 20 19 19 24 36 43 45 54 63 63 56 43 33 24 15 11 10 11 13 12 7 1 355 351 351 353 357 4 10 13 14 12 6 353 330 308 283 267 267 271 280 294 304 307 311 314 322 332 343 350 357 10 9 2 3 359 355 355 349 354 8 6 357
45 31 29 37 45 50 52 53 51 49 49 44 44 56 62 59 56 55 53 49 47 42 35 31 29 31 38 45 48 55 60 58 48 37 29 22 18 18 21 22 20 15 7 358 351 347 348 353 360 8 18 28 29 25 16 7 358 348 335 306 291 275 269 280 293 302 305 304 312 331 341 343 342 339 330 338 12 6 346 343 341 343 358 7 13
40 32 38 49 58 62 61 58 55 54 52 49 53 64 65 59 56 56 56 57 56 52 48 44 40 37 39 44 46 50 53 51 42 32 24 19 17 18 22 23 19 13 4 357 352 349 351 358 3 13 27 35 34 32 25 16 11 13 21 13 359 352 270 268 279 291 299 298 293 300 307 318 328 327 323 322 331 358 343 327 324 330 341 354 11
51 52 61 64 64 64 62 59 56 54 56 55 57 59 57 55 55 53 55 60 61 59 56 52 47 43 43 45 45 44 46 46 40 27 18 14 13 15 19 23 22 16 11 9 9 9 11 12 11 18 30 35 31 28 30 28 21 22 33 38 37 38 350 264 268 277 291 305 301 298 300 309 320 322 328 335 330 325 321 308 303 317 338 350 2
68 71 72 68 67 67 62 57 56 56 56 57 58 56 52 51 51 51 58 65 66 63 60 55 51 48 47 48 48 46 44 44 38 23 13 11 10 11 15 20 22 22 23 25 28 31 31 25 21 22 24 24 19 16 23 32 30 35 44 41 26 21 14 343 291 283 292 300 302 306 307 310 315 313 314 317 315 316 319 317 320 324 332 348 357
77 79 77 73 73 71 63 57 57 58 55 54 58 59 55 52 49 52 64 69 67 63 59 55 52 49 48 48 50 49 46 43 36 24 15 11 8 7 10 14 19 22 28 34 36 36 36 33 29 27 21 17 11 6 6 10 22 35 43 42 33 32 32 26 9 340 324 313 304 306 311 314 318 318 315 315 317 327 337 335 332 326 322 331 341
77 82 82 76 75 71 61 56 58 58 54 52 55 57 57 56 54 60 69 69 65 60 55 51 49 47 46 45 46 47 47 45 39 30 23 16 10 6 6 10 15 18 25 35 38 36 35 35 34 30 23 22 18 10 3 353 345 359 11 15 13 16 19 15 12 7 358 352 343 330 324 325 326 326 327 329 330 330 329 325 318 311 309 307 303
71 81 85 81 77 68 57 53 54 56 53 50 51 55 59 59 60 66 70 67 63 58 52 47 46 45 44 42 41 42 44 45 42 38 33 27 19 13 8 8 11 12 17 28 37 36 34 34 34 31 26 24 25 22 12 356 336 334 343 347 345 347 351 353 358 359 354 356 360 356 354 356 349 339 331 329 329 328 325 321 315 308 302 297 289
70 78 84 82 78 69 54 46 45 47 48 47 46 51 59 63 64 66 67 65 61 55 48 45 44 43 42 40 39 38 40 41 41 39 38 34 29 22 15 11 11 9 10 18 30 35 34 33 33 31 28 24 23 23 19 3 344 341 342 342 338 338 340 340 342 345 349 356 3 6 14 20 17 13 0 343 336 334 332 326 312 309 307 302 301
70 74 80 80 82 87 64 39 37 36 38 43 43 46 58 67 68 67 65 63 59 53 47 44 43 42 40 38 37 35 35 36 37 37 36 35 32 27 21 16 13 10 6 10 20 27 27 29 33 31 26 23 23 23 20 15 3 351 346 344 339 333 332 331 332 339 356 12 11 10 20 20 18 23 19 3 350 340 337 336 317 302 305 303 301
71 74 77 80 101 134 136 78 38 27 30 40 42 46 60 71 72 70 65 60 56 50 45 40 39 38 36 35 34 33 31 30 31 32 32 31 30 26 22 18 15 11 6 2 6 10 11 20 31 30 23 20 23 22 20 21 16 5 358 353 347 344 342 344 350 357 13 23 14 8 9 5 7 13 7 357 354 349 342 337 325 294 287 295 297
81 80 79 82 102 132 140 119 59 33 40 50 53 59 73 78 75 72 66 59 52 45 40 35 33 31 29 29 30 30 29 26 25 26 27 26 25 22 19 15 11 9 4 358 353 352 358 16 30 29 23 20 20 18 18 21 20 14 13 10 2 360 2 8 20 25 26 22 13 5 1 359 3 4 358 356 355 348 341 337 330 315 297 291 294
90 80 74 78 92 110 113 104 88 78 74 68 66 76 93 90 81 75 64 53 44 39 34 27 26 25 23 23 25 26 25 23 20 20 20 21 21 18 14 10 6 2 357 352 346 345 354 14 28 26 23 21 18 15 16 17 15 15 19 19 13 9 15 24 28 21 14 15 12 4 358 359 1 359 355 352 346 339 337 335 327 317 306 283 280
91 82 74 75 86 97 98 93 90 88 78 70 75 86 96 93 80 63 41 30 27 27 21 15 15 17 17 17 19 20 20 18 16 13 14 16 16 15 11 6 2 358 352 347 344 345 355 13 23 23 22 18 15 15 16 16 14 13 15 17 16 2 320 11 25 6 357 3 360 346 342 343 344 346 345 343 339 337 339 337 325 312 301 259 260
88 81 73 75 83 90 91 91 93 97 91 87 89 86 81 75 58 37 20 10 10 8 3 2 0 1 7 10 11 12 12 12 11 8 8 11 12 12 10 5 1 0 358 349 345 349 1 14 17 16 18 16 12 12 14 14 13 10 9 10 14 11 334 275 276 293 308 332 335 328 328 328 330 335 339 341 341 342 347 352 349 337 315 244 219
89 80 73 76 86 92 89 86 97 112 115 106 95 80 67 60 47 31 17 8 4 359 354 353 349 346 352 357 0 2 3 5 5 3 2 5 7 9 8 4 2 3 3 359 356 359 9 13 12 13 14 10 8 9 9 9 7 4 2 1 6 11 6 336 291 275 273 281 290 299 308 317 326 334 338 340 343 347 353 1 10 14 8 5 48
95 95 88 82 89 96 87 81 95 108 110 103 89 69 56 51 40 28 19 13 9 3 355 352 348 342 339 342 349 353 354 356 358 357 356 357 360 3 4 3 3 4 6 7 9 12 12 10 12 14 11 5 5 5 3 3 2 359 357 359 1 4 5 356 335 310 295 287 286 290 298 309 321 332 334 335 344 357 4 9 20 32 32 31 47
94 96 95 91 94 100 94 90 97 102 101 95 80 60 48 39 27 19 17 12 6 0 353 348 345 341 335 333 338 343 347 350 350 350 350 348 350 355 358 359 1 4 7 9 9 8 8 9 12 14 7 359 359 360 359 359 359 357 356 359 0 0 1 360 354 346 337 323 311 306 306 309 316 324 327 334 352 10 14 13 16 26 34 39 53
91 89 87 89 95 104 110 110 110 108 104 93 74 52 30 12 3 357 352 349 349 349 346 341 339 339 335 331 331 335 340 343 343 345 345 342 341 344 349 354 358 2 6 8 4 0 1 7 12 12 4 356 354 357 0 0 359 359 359 1 2 3 4 4 2 1 358 352 344 334 325 321 321 320 323 337 2 19 20 16 13 14 20 30 40
91 85 80 76 78 87 100 115 122 120 106 56 18 4 350 340 337 334 330 328 330 333 336 334 332 333 333 331 329 332 335 337 338 340 342 340 335 333 339 347 352 356 3 7 9 11 12 11 10 8 2 357 355 358 2 3 3 2 2 5 9 13 13 12 10 8 4 357 351 341 331 329 330 328 332 343 11 26 21 14 8 6 11 21 26
97 88 79 66 63 65 69 87 105 105 35 356 347 344 337 329 327 326 323 321 321 322 325 325 323 325 328 329 328 328 329 332 334 335 337 339 333 327 331 340 344 347 356 4 11 18 19 11 5 2 357 353 353 356 358 1 6 5 7 15 26 30 27 24 21 17 12 9 7 1 351 345 342 341 343 352 8 21 16 9 2 358 2 8 11
109 98 83 59 46 39 34 43 40 0 337 333 336 337 333 328 328 327 324 321 318 316 314 311 312 316 320 322 323 323 324 328 332 332 333 335 333 326 327 335 337 336 343 357 5 9 10 7 3 358 351 348 352 359 1 0 3 5 11 26 36 38 35 30 26 26 27 28 27 20 14 9 360 353 350 349 353 1 6 10 3 354 352 353 352
119 104 85 51 1 333 330 322 313 311 310 309 311 315 318 320 322 323 324 324 319 314 311 307 307 311 315 316 317 318 320 325 329 329 329 330 331 327 326 332 334 326 325 343 356 359 2 8 7 357 349 348 354 6 6 358 355 360 14 29 33 32 32 29 26 27 28 29 27 21 15 11 3 354 345 340 345 354 354 187 258 344 328 319 324
141 119 80 20 344 340 343 329 313 308 304 299 297 299 302 306 309 312 317 319 316 314 312 309 309 312 314 313 313 314 318 322 324 325 326 326 326 325 325 329 328 317 313 328 343 352 360 8 10 1 351 350 354 2 2 352 348 358 18 27 27 25 25 24 23 22 22 22 22 17 9 1 353 348 347 347 355 3 2 220 216 248 268 278 298
166 125 25 355 344 343 342 337 330 323 313 305 301 301 303 304 303 306 310 311 310 309 308 307 311 315 316 314 313 315 317 319 319 319 321 322 322 322 324 325 320 310 307 314 322 335 351 5 10 5 358 355 355 355 350 346 348 2 17 22 23 23 22 20 20 20 20 19 17 13 6 360 354 353 356 356 358 6 10 342 245 244 251 257 272
212 323 338 340 342 342 337 334 337 338 334 329 322 316 315 311 306 307 310 309 307 304 302 305 312 317 317 316 316 316 317 319 317 315 315 318 320 320 321 321 313 303 299 300 304 317 336 353 1 0 359 359 356 349 340 336 340 352 7 16 20 21 21 20 20 21 20 19 16 11 5 2 359 358 358 357 357 4 15 14 322 269 263 261 263
260 295 316 325 329 331 331 329 334 340 343 341 334 327 323 318 310 309 312 313 310 307 304 308 315 318 317 317 317 315 316 317 317 316 316 318 320 320 319 314 303 296 293 290 291 300 319 336 345 349 352 356 355 347 335 323 323 333 351 8 14 17 19 20 21 22 21 19 17 12 6 4 5 4 1 1 2 8 15 20 15 338 294 275 267
269 285 301 307 311 318 323 325 328 333 339 340 335 330 327 326 320 311 308 311 315 316 313 313 315 315 315 317 318 316 315 317 318 318 320 321 322 322 316 304 295 291 291 288 285 291 307 323 333 338 343 348 351 346 331 316 313 318 330 348 3 10 13 15 18 20 21 20 19 15 9 8 11 13 12 11 11 12 10 6 2 349 309 286 281
304 295 296 298 303 309 316 321 323 325 329 332 332 330 328 331 337 322 300 306 318 326 323 318 317 318 320 324 326 324 321 321 322 322 322 323 324 322 311 298 293 290 287 286 282 284 301 319 329 333 335 339 344 343 332 316 308 312 321 332 348 358 2 8 14 16 16 19 21 18 14 14 17 19 18 17 13 9 3 352 339 326 310 300 299
326 309 297 297 304 306 310 317 318 317 318 321 326 329 327 328 335 335 308 306 317 325 325 322 321 323 327 332 336 338 337 333 329 326 325 325 324 319 309 301 299 293 287 285 280 281 298 316 322 323 328 331 336 340 336 321 309 308 314 320 331 342 346 354 6 10 10 14 19 17 13 14 17 21 21 16 10 5 359 348 333 320 312 305 301
271 274 269 272 279 286 301 313 316 315 313 314 321 327 324 317 315 316 315 316 314 312 315 317 319 323 326 330 335 339 342 341 335 332 331 329 326 321 314 308 304 297 289 284 278 281 297 311 311 315 325 323 326 335 340 331 320 314 312 313 321 330 333 341 356 2 2 6 12 14 11 8 10 16 18 16 15 13 7 1 351 338 327 320 313
232 233 236 248 260 274 297 312 316 314 310 311 316 319 312 296 286 288 297 305 310 312 312 312 314 316 316 318 322 327 331 335 334 333 333 333 331 327 322 315 310 302 294 286 279 280 292 306 312 317 320 313 316 327 337 337 331 324 319 315 316 317 320 329 343 351 355 358 3 9 9 5 5 10 13 14 18 19 15 13 11 3 356 349 342
224 230 233 238 252 274 296 309 312 308 306 308 311 308 296 285 282 285 291 299 306 311 313 313 313 311 306 306 308 310 314 320 322 324 327 328 329 330 327 321 316 310 303 294 282 279 287 299 311 325 333 317 307 312 325 337 340 333 326 322 316 307 304 314 328 339 349 355 358 4 7 5 5 7 9 12 15 15 15 13 8 7 12 10 1
227 239 235 230 244 272 289 298 301 301 300 302 303 296 288 285 285 288 294 299 304 308 310 311 311 310 308 306 303 300 302 306 309 312 314 315 318 323 324 323 320 316 312 305 290 283 286 293 302 325 352 338 309 300 307 325 343 346 337 329 318 304 294 301 316 328 341 349 353 357 2 4 5 6 6 8 10 11 15 16 12 16 29 23 10
237 241 232 229 245 271 286 293 297 299 299 299 298 293 288 285 285 289 294 298 301 303 305 308 309 307 309 311 306 301 301 302 301 300 303 305 307 309 311 314 314 312 313 310 299 293 292 291 293 306 338 347 324 311 310 318 336 353 351 339 322 307 296 297 308 320 332 341 346 349 354 0 6 6 4 6 6 5 10 16 19 33 48 32 21
233 235 235 239 256 273 284 291 296 298 297 295 294 292 289 286 287 291 293 295 298 301 305 307 306 304 305 308 307 306 309 308 303 297 294 296 300 300 297 295 292 290 296 298 295 295 296 294 292 292 297 304 306 305 305 306 315 341 353 345 328 311 300 298 305 314 323 333 340 343 346 355 4 7 5 5 3 357 358 11 20 38 53 40 34
231 239 248 258 268 276 282 287 290 293 293 290 286 284 285 287 291 294 294 294 297 301 303 305 305 304 304 304 303 305 310 314 313 304 294 291 292 294 293 288 279 273 276 283 286 290 292 293 292 290 288 289 291 291 290 288 290 311 339 342 329 314 303 299 301 307 316 327 336 340 343 349 0 6 7 6 2 352 345 358 10 33 70 57 44
238 251 262 268 273 276 279 282 286 291 293 288 281 279 283 289 296 299 299 296 297 298 298 300 306 310 308 304 300 298 301 308 315 312 302 294 291 290 290 287 280 273 271 275 282 287 289 291 292 291 290 292 293 292 289 286 285 295 315 328 326 315 304 299 299 301 308 318 328 336 340 345 354 1 5 6 3 355 343 348 2 47 100 74 50
247 259 267 271 273 275 277 280 286 293 295 287 280 280 284 290 296 299 298 295 296 299 301 303 307 310 308 305 301 296 292 294 301 305 304 300 296 293 290 286 282 277 273 273 278 283 286 289 291 291 291 293 293 291 288 285 283 287 297 309 316 315 308 303 299 297 300 308 320 331 336 339 347 353 358 2 2 360 353 354 7 88 118 86 58
256 266 271 272 271 274 280 284 288 293 294 287 280 278 282 289 294 295 293 292 297 302 304 304 305 305 308 310 308 301 295 291 288 289 293 294 295 296 295 289 284 279 274 273 276 280 283 286 288 287 285 289 295 295 289 281 278 282 286 293 303 309 309 305 300 295 292 296 309 323 328 330 337 343 345 351 357 358 357 356 5 103 125 101 67
268 273 274 271 270 274 281 286 289 292 292 287 280 278 283 290 294 293 290 291 296 300 300 301 303 305 312 320 320 313 305 295 286 284 287 286 284 293 299 293 284 278 275 275 277 278 281 285 287 286 282 281 289 296 290 279 274 279 282 285 293 299 302 305 303 293 284 286 301 315 319 319 324 328 328 333 343 349 354 354 347 161 145 128 92
275 274 273 273 275 277 279 283 287 288 287 284 280 280 286 292 295 294 291 292 295 296 296 300 305 307 312 321 325 321 314 303 291 286 287 284 280 287 299 297 285 275 271 272 274 275 280 285 285 285 286 283 284 292 291 281 273 273 278 284 291 294 296 301 300 284 273 279 292 303 306 307 312 313 308 305 313 327 343 347 327 222 179 167 187
273 272 273 277 280 281 282 285 286 284 281 279 278 281 286 291 294 294 293 293 294 296 298 303 307 308 311 318 322 323 323 316 303 294 289 283 278 283 294 298 290 278 271 271 271 272 278 284 282 279 287 287 282 286 288 280 269 262 271 288 293 291 290 293 292 280 270 275 283 288 293 300 305 302 294 285 279 288 317 332 303 230 204 199 209
271 272 274 276 277 278 281 286 285 280 275 273 274 279 285 289 290 292 292 291 292 296 300 304 307 308 311 315 319 325 333 335 326 312 296 283 277 280 288 296 300 292 280 274 272 272 275 278 274 270 279 286 282 282 284 276 263 251 256 280 290 290 286 284 280 265 255 262 274 283 290 295 296 293 288 277 263 259 278 301 274 231 211 209 218
271 274 277 279 280 281 283 284 280 274 270 270 272 278 284 286 287 290 292 291 292 296 299 302 305 309 313 314 314 318 329 338 340 335 316 292 278 275 278 284 296 300 289 278 272 271 270 269 264 260 265 274 276 278 278 270 256 244 244 260 278 283 277 270 258 224 206 242 280 294 298 296 291 286 283 273 257 247 251 265 255 227 209 208 224
270 276 281 287 289 288 284 278 270 264 265 268 273 279 282 281 283 289 294 294 294 294 295 298 304 310 314 314 312 311 315 322 331 338 331 311 290 281 277 276 280 290 292 284 273 267 263 260 258 257 259 262 265 267 267 262 253 242 236 242 255 261 248 224 177 134 124 84 343 331 323 314 300 286 277 267 253 244 242 249 246 222 208 210 225
268 275 284 292 294 289 280 268 260 261 263 265 272 280 282 280 280 286 293 293 291 289 290 294 301 307 311 313 312 310 308 309 314 323 327 320 308 298 288 279 275 278 284 281 271 261 255 253 254 256 260 262 260 257 256 254 248 237 230 233 244 249 246 239 217 170 152 128 358 353 348 341 326 302 279 262 251 245 241 242 240 224 211 211 222
268 276 282 287 289 287 279 269 266 268 269 269 273 280 284 282 280 282 286 287 286 284 287 291 294 298 303 307 309 309 308 306 305 308 313 316 315 309 298 284 276 275 277 276 267 256 250 249 252 255 258 260 258 253 251 250 244 234 229 233 241 247 251 256 256 239 219 228 270 317 341 352 352 335 300 269 256 250 245 244 243 230 217 215 222